Regional Weather Roundup
Issued by NWS

Home | Current Version | Previous Version | Text Only | Print | Product List | Glossary On
Versions: 1 2 3 4 5 6 7 8 9 10 11 12 13 14 15 16 17 18 19 20 21 22 23 24 25 26 27 28 29 30 31 32 33 34 35 36 37 38 39 40 41 42 43 44 45 46 47 48 49 50
000
ASUS43 KLMK 260910
RWRKY
KENTUCKY REGIONAL WEATHER ROUNDUP
NATIONAL WEATHER SERVICE LOUISVILLE KY
500 AM EDT SAT JUL 26 2014

NOTE "FAIR" INDICATES FEW OR NO CLOUDS BELOW 12,000 FEET
WITH NO SIGNIFICANT WEATHER AND/OR OBSTRUCTIONS TO VISIBILITY.

KYZ001>023-026-027-061>063-070>075-261000-
WESTERN AND SOUTH CENTRAL KENTUCKY

CITY           SKY/WX    TMP DP  RH WIND       PRES   REMARKS
PADUCAH        CLEAR     68  64  87 S7        29.95F
HENDERSON      CLEAR     61  57  88 S5        29.96F
OWENSBORO      CLEAR     62  60  93 S5        29.98F
HOPKINSVILLE   CLEAR     65  65 100 SE1       30.00F
BOWLING GREEN  CLEAR     65  60  84 CALM      30.01S
GLASGOW        CLEAR     63  63 100 CALM      30.01S
$$

KYZ024-025-028>034-038-045-046-053-261000-
NORTH CENTRAL KENTUCKY

CITY           SKY/WX    TMP DP  RH WIND       PRES   REMARKS
LOUISVILLE/SDF PTCLDY    69  60  73 S6        29.97F
LOUISVILLE/LOU PTCLDY    68  61  78 CALM      29.98S
FORT KNOX      CLEAR     63  60  89 S3        29.98S
$$

KYZ035>037-039>044-047>052-055>060-089>105-261000-
NORTHEAST KENTUCKY

CITY           SKY/WX    TMP DP  RH WIND       PRES   REMARKS
LEXINGTON      PTCLDY    66  60  81 S7        30.01S
COVINGTON      CLOUDY    68  61  78 SW5       29.98F
FRANKFORT      CLEAR     67  60  78 CALM      29.99S
$$

KYZ054-064>069-076>088-106>120-261000-
SOUTHEAST KENTUCKY

CITY           SKY/WX    TMP DP  RH WIND       PRES   REMARKS
JACKSON        CLEAR     62  60  93 CALM      30.04S FOG
LONDON         CLEAR     62  59  90 CALM      30.04F
SOMERSET       PTCLDY    61  61 100 CALM      30.04F
MIDDLESBORO    FOG       62  62 100 CALM      30.06S VSB 1/2
MONTICELLO     MOSUNNY   62  62 100 CALM      30.04F FOG
$$




USA.gov is the U.S. government's official web portal to all federal, state and local government web resources and services.